Regional Weather Roundup
Issued by NWS

Home | Current Version | Previous Version | Graphics & Text | Print | Product List | Glossary On
Versions: 1 2 3 4 5 6 7 8 9 10 11 12 13 14 15 16 17 18 19 20 21 22 23 24 25 26 27 28 29 30 31 32 33 34 35 36 37 38 39 40 41 42 43 44 45 46 47 48 49 50
297
ASUS43 KMPX 231610
RWRMN
WEATHER ROUNDUP FOR MINNESOTA
NATIONAL WEATHER SERVICE TWIN CITIES/CHANHASSEN MN
1100 AM CDT FRI JUN 23 2017


NOTE: "FAIR" INDICATES FEW OR NO CLOUDS BELOW 12,000 FEET WITH NO
SIGNIFICANT WEATHER AND/OR OBSTRUCTIONS TO VISIBILITY. N/A MEANS
CURRENT SKY AND/OR WEATHER CONDITIONS ARE NOT AVAILABLE.

MNZ060>063-068>070-231700-
   Twin Cities Metro

CITY           SKY/WX    TMP DP  RH WIND       PRES   REMARKS
TWIN CITIES    CLOUDY    66  52  60 NW15      29.79F
ST PAUL        PTSUNNY   66  52  60 NW20G25   29.79S
CRYSTAL        PTSUNNY   65  51  60 W15G21    29.78S
BLAINE         PTSUNNY   66  54  63 W9G20     29.78S
LAKEVILLE      PTSUNNY   64  54  68 W8        29.80F
EDEN PRAIRIE   CLOUDY    66  52  60 W15G22    29.80S
SOUTH ST PAUL  PTSUNNY   67  51  55 W9G20     29.78S
LAKE ELMO      CLOUDY    64  52  63 W13       29.80R
$$
MNZ001>005-007-008-013>017-022>024-027-028-231700-
   Northwest Minnesota

CITY           SKY/WX    TMP DP  RH WIND       PRES   REMARKS
BEMIDJI        DRIZZLE   57  54  88 W18       29.78R
HALLOCK        CLOUDY    61  52  72 NW22G29   29.82R
ROSEAU           N/A     61  54  77 W15G24    29.77R
WARROAD        LGT RAIN  57  54  88 NW13G21   29.76R
THIEF RVR FALL CLOUDY    59  50  72 NW22G29   29.83
CROOKSTON      CLOUDY    61  52  72 NW22G29   29.84R
FOSSTON        CLOUDY    57  52  82 NW15G22   29.82R
DETROIT LAKES  PTSUNNY   61  52  72 NW24G30   29.85R
MOORHEAD       CLOUDY    61  50  67 NW14G25   29.88R
PARK RAPIDS    CLOUDY    64  48  56 NW16G22   29.80R
MAHNOMEN       CLOUDY    61  52  74 NW17G23   29.83R
$$
MNZ006-009>011-018-025>026-231700-
   North Central Minnesota

CITY           SKY/WX    TMP DP  RH WIND       PRES   REMARKS
BAUDETTE       PTSUNNY   60  52  74 NW14      29.72R
FLAG ISLAND    PTSUNNY   63  52  67 NW16G22   29.71R
INTL FALLS     PTSUNNY   64  51  62 NW14G24   29.69R
WASKISH        CLOUDY    63  52  67 NW12G18   29.74R
BIG FORK       MOSUNNY   63  52  67 NW9       29.72S
LONGVILLE      LGT RAIN  61  52  72 NW8G16    29.77R
GRAND RAPIDS   CLOUDY    62  50  64 NW16G22   29.75S
CRANE LAKE     LGT RAIN  57  52  82 NW7       29.69R
ORR            CLOUDY    59  46  63 NW10G21   29.67R
COOK           PTSUNNY   61  48  63 W13G18    29.70R
WALKER         CLOUDY    59  52  76 W10G21    29.78R
$$
MNZ012-019>021-037-231700-
   Northeast Minnesota

CITY           SKY/WX    TMP DP  RH WIND       PRES   REMARKS
DULUTH         PTSUNNY   62  49  62 NW13G24   29.69S
ELY            CLOUDY    55  48  76 W15G21    29.67R HAZE
HIBBING        PTSUNNY   59  46  62 NW15G21   29.71R
EVELETH        PTSUNNY   59  44  56 W17G23    29.71R
DULUTH HARBOR  CLOUDY    66  52  59 W21       29.69S
TWO HARBORS    PTSUNNY   66  52  59 NW8G20    29.66S
SILVER BAY     CLOUDY    64  50  59 W6        29.64S
GRAND MARAIS     N/A     50  45  83 SW12      29.61R
G MARAIS ARPRT DRIZZLE   57  45  62 W8        29.63R
$$
MNZ029>031-032-039>041-046>048-054>057-064-231700-
   West Central Minnesota

CITY           SKY/WX    TMP DP  RH WIND       PRES   REMARKS
FERGUS FALLS   CLOUDY    59  54  82 NW22G31   29.86R
WHEATON        PTSUNNY   63  48  59 W22G28    29.91R
MORRIS         LGT RAIN  63  55  77 NW20G30   29.88R
ALEXANDRIA     CLOUDY    64  55  72 W15       29.87R
ELBOW LAKE     CLOUDY    58  56  91 NW16G22   29.88R
WADENA         PTSUNNY   63  52  67 NW15G23   29.81S
GLENWOOD       MOSUNNY   61  55  82 NW18G24   29.87R
APPLETON       PTSUNNY   64  52  63 NW18G26   29.88S
BENSON         PTSUNNY   66  54  63 N18G30    29.88S
ORTONVILLE     CLOUDY    63  50  63 NW20G26   29.90S
MADISON        CLOUDY    66  54  63 NW18G28   29.91R
WILLMAR        PTSUNNY   66  55  68 NW21G26   29.87R
$$
MNZ033>034-036-042>043-049>051-058-059-231700-
   Central Minnesota

CITY           SKY/WX    TMP DP  RH WIND       PRES   REMARKS
ST CLOUD       PTSUNNY   67  53  61 NW13G24   29.80R
SAUK CENTRE    CLOUDY    63  52  69 W12       29.84R
PAYNESVILLE    MOSUNNY   67  51  58 NW17G26   29.84R
AITKIN         PTSUNNY   61  50  67 W10       29.75S
PINE RIVER     PTSUNNY   63  52  67 NW14G20   29.82S
BRAINERD       CLOUDY    63  49  60 NW10      29.79S
STAPLES        PTSUNNY   64  48  55 NW14G25   29.80S
LONG PRAIRIE   FAIR      64  50  59 W14G23    29.83R
LITTLE FALLS   MOSUNNY   64  46  52 NW12G23   29.81R
LITCHFIELD     MOSUNNY   66  55  68 NW18G24   29.84R
BUFFALO        PTSUNNY   65  53  63 W13G20    29.82R
MAPLE LAKE     PTSUNNY   67  55  65 NW15G23   29.82S
HUTCHINSON     PTSUNNY   65  56  74 W13G21    29.84S
$$
MNZ037-044-045-052-053-231700-
   East Central Minnesota

CITY           SKY/WX    TMP DP  RH WIND       PRES   REMARKS
PRINCETON      PTSUNNY   68  52  56 NW15G22   29.79R
MORA           MOSUNNY   64  50  59 NW13G20   29.79R
CAMBRIDGE      PTSUNNY   68  52  56 W12G20    29.77R
RUSH CITY      PTSUNNY   66  52  59 W9G17     29.77R
MOOSE LAKE     PTSUNNY   64  50  59 W10G18    29.72S
HINCKLEY       PTSUNNY   66  52  59 NW13      29.75S
CLOQUET        CLOUDY    63  46  55 W10G17    29.72R
MCGREGOR       CLOUDY    63  50  63 NW9       29.75S
$$
MNZ071>073-080-081-089-090-097-098-231700-
   Southwest Minnesota

CITY           SKY/WX    TMP DP  RH WIND       PRES   REMARKS
MONTEVIDEO     PTSUNNY   64  57  77 N20G26    29.88S
GRANITE FALLS  CLOUDY    65  55  69 NW18G28   29.90S
CANBY          PTSUNNY   65  52  62 NW23G30   29.93R
MARSHALL       CLOUDY    64  53  67 NW21G31   29.90S
REDWOOD FALLS  CLOUDY    65  52  62 NW21G26   29.86S
OLIVIA         CLOUDY    63  54  72 NW18G29   29.86R
PIPESTONE      CLOUDY    63  52  67 NW17G26   29.96R
WINDOM         CLOUDY    66  52  59 NW21G26   29.90S
WORTHINGTON    CLOUDY    62  51  67 NW22      29.95R
JACKSON        CLOUDY    64  52  63 NW22G29   29.91R
TRACY          CLOUDY    64  55  73 NW17G26   29.91S
SLAYTON        CLOUDY    61  52  71 NW18G24   29.94R
$$
MNZ065>067-074>077-082>085-091>093-231700-
   South Central Minnesota

CITY           SKY/WX    TMP DP  RH WIND       PRES   REMARKS
MANKATO        CLOUDY    65  55  70 NW17G24   29.85S
NEW ULM        LGT RAIN  63  54  72 NW15      29.86S
ST JAMES       CLOUDY    63  54  72 W15G21    29.88S
FAIRMONT       PTSUNNY   66  54  65 NW20G26   29.88S
GLENCOE        CLOUDY    65  58  76 W14       29.83S
FARIBAULT      MOSUNNY   66  54  63 W14G21    29.82F
OWATONNA       MOSUNNY   66  55  68 NW23      29.82S
WASECA         MOSUNNY   64  52  63 NW17G23   29.85S
ALBERT LEA     PTSUNNY   64  52  63 NW13G23   29.84S
$$
MNZ078>079-086>088-094>096-231700-
   Southeast Minnesota

CITY           SKY/WX    TMP DP  RH WIND       PRES   REMARKS
ROCHESTER      PTSUNNY   65  54  67 W21       29.82R
RED WING       SUNNY     70  48  46 W15       29.77S
STANTON        MOSUNNY   67  53  59 NW17G23   29.79S
DODGE CENTER   PTSUNNY   64  52  63 W14G25    29.82R
WINONA         SUNNY     70  50  49 NW12G21   29.76S
AUSTIN         PTSUNNY   64  52  63 NW20G26   29.82S
PRESTON        SUNNY     67  52  59 NW15      29.80R
$$
ABBREVIATIONS USED IN REMARKS
   TC - TEMPERATURES IN CELSIUS
  WCI - WIND CHILL INDEX
   HX - HEAT INDEX
  VSB - VISIBILITY
$$




USA.gov is the U.S. government's official web portal to all federal, state and local government web resources and services.